| time (UTC) | temp C | wind direction | speed KPH | gust KPH | rain 1hr cm | rain 24hr cm | rain mn cm | humidity % | barometer mb |
| 20260903190449 | 28 | 19 | 0.0 | 1.6 | 0.00 | 0.00 | 0.89 | 71 | 1009.9 |
| 20260903185452 | 30 | 170 | 0.0 | 3.2 | 0.00 | 0.00 | 0.43 | 66 | 1009.8 |
| 20260903184449 | 31 | 171 | 0.0 | 8.0 | 0.00 | 0.00 | 0.00 | 62 | 1009.7 |
| 20260903183449 | 32 | 139 | 0.0 | 1.6 | 0.00 | 0.00 | 0.00 | 62 | 1009.7 |
| 20260903182449 | 32 | 139 | 0.0 | 1.6 | 0.00 | 0.00 | 0.00 | 60 | 1009.7 |
| 20260903181449 | 32 | 139 | 0.0 | 6.4 | 0.00 | 0.00 | 0.00 | 59 | 1009.7 |
| 20260903180452 | 33 | 142 | 0.0 | 0.0 | 0.00 | 0.00 | 0.00 | 59 | 1009.7 |
| 20260903175449 | 33 | 142 | 1.6 | 3.2 | 0.00 | 0.00 | 0.00 | 60 | 1009.9 |
| 20260903174448 | 33 | 142 | 0.0 | 4.8 | 0.00 | 0.00 | 0.00 | 60 | 1009.7 |
| 20260903173452 | 33 | 142 | 4.8 | 8.0 | 0.00 | 0.00 | 0.00 | 60 | 1009.7 |
| 20260903172448 | 33 | 140 | 1.6 | 14.5 | 0.00 | 0.00 | 0.00 | 60 | 1009.8 |
| 20260903171448 | 33 | 185 | 0.0 | 6.4 | 0.00 | 0.00 | 0.00 | 61 | 1010.2 |
| 20260903170449 | 33 | 187 | 3.2 | 8.0 | 0.00 | 0.00 | 0.00 | 62 | 1010.2 |
| 20260903165448 | 32 | 190 | 3.2 | 8.0 | 0.00 | 0.00 | 0.00 | 64 | 1010.3 |
| 20260903164448 | 32 | 235 | 3.2 | 4.8 | 0.00 | 0.00 | 0.00 | 68 | 1010.3 |
| 20260903163448 | 31 | 235 | 1.6 | 4.8 | 0.00 | 0.00 | 0.00 | 69 | 1010.3 |
| 20260903162448 | 31 | 235 | 1.6 | 6.4 | 0.00 | 0.00 | 0.00 | 69 | 1010.4 |
| 20260903161448 | 30 | 225 | 3.2 | 6.4 | 0.00 | 0.00 | 0.00 | 72 | 1010.3 |
| 20260903160449 | 30 | 227 | 1.6 | 4.8 | 0.00 | 0.00 | 0.00 | 74 | 1010.3 |
| 20260903155448 | 30 | 229 | 1.6 | 4.8 | 0.00 | 0.00 | 0.00 | 75 | 1010.2 |
| 20260903154449 | 30 | 230 | 3.2 | 8.0 | 0.00 | 0.00 | 0.00 | 75 | 1010.3 |
| 20260903153448 | 30 | 172 | 0.0 | 8.0 | 0.00 | 0.00 | 0.00 | 76 | 1010.3 |
| 20260903152449 | 30 | 184 | 1.6 | 6.4 | 0.00 | 0.00 | 0.00 | 77 | 1010.4 |
| 20260903151448 | 30 | 184 | 0.0 | 8.0 | 0.00 | 0.00 | 0.00 | 78 | 1010.6 |
| 20260903150449 | 29 | 156 | 0.0 | 6.4 | 0.00 | 0.00 | 0.00 | 79 | 1010.6 |
| 20260903145449 | 29 | 156 | 0.0 | 1.6 | 0.00 | 0.00 | 0.00 | 80 | 1010.7 |
| 20260903144448 | 28 | 156 | 0.0 | 3.2 | 0.00 | 0.00 | 0.00 | 81 | 1010.6 |
| 20260903143449 | 28 | 156 | 0.0 | 4.8 | 0.00 | 0.00 | 0.00 | 82 | 1010.6 |
| 20260903142451 | 28 | 156 | 0.0 | 3.2 | 0.00 | 0.00 | 0.00 | 82 | 1010.5 |
| 20260903141448 | 28 | 156 | 1.6 | 6.4 | 0.00 | 0.00 | 0.00 | 83 | 1010.3 |
| 20260903140449 | 28 | 164 | 0.0 | 4.8 | 0.00 | 0.00 | 0.00 | 84 | 1010.3 |
| 20260903135449 | 27 | 164 | 0.0 | 3.2 | 0.00 | 0.00 | 0.00 | 84 | 1010.3 |
| 20260903134449 | 27 | 173 | 0.0 | 0.0 | 0.00 | 0.00 | 0.00 | 84 | 1010.3 |
| 20260903133448 | 27 | 173 | 0.0 | 0.0 | 0.00 | 0.00 | 0.00 | 84 | 1010.3 |
| 20260903132452 | 27 | 173 | 0.0 | 0.0 | 0.00 | 0.00 | 0.00 | 84 | 1010.2 |
| 20260903131451 | 27 | 173 | 0.0 | 0.0 | 0.00 | 0.00 | 0.00 | 84 | 1010.2 |
| 20260903130449 | 27 | 173 | 0.0 | 0.0 | 0.00 | 0.00 | 0.00 | 84 | 1010.2 |
| 20260903125448 | 27 | 173 | 0.0 | 0.0 | 0.00 | 0.00 | 0.00 | 84 | 1009.8 |
| 20260903124448 | 27 | 173 | 0.0 | 0.0 | 0.00 | 0.00 | 0.00 | 84 | 1009.6 |
| 20260903123448 | 27 | 173 | 0.0 | 0.0 | 0.00 | 0.00 | 0.00 | 83 | 1009.6 |
| 20260903122449 | 27 | 173 | 0.0 | 1.6 | 0.00 | 0.00 | 0.00 | 82 | 1009.5 |
| 20260903121448 | 27 | 173 | 0.0 | 3.2 | 0.00 | 0.00 | 0.00 | 82 | 1009.4 |
| 20260903120451 | 27 | 173 | 0.0 | 6.4 | 0.00 | 0.00 | 0.00 | 82 | 1009.4 |
| 20260903115448 | 27 | 173 | 0.0 | 3.2 | 0.00 | 0.00 | 0.00 | 81 | 1009.6 |
| 20260903114451 | 27 | 173 | 0.0 | 3.2 | 0.00 | 0.00 | 0.00 | 81 | 1009.6 |
| 20260903113448 | 27 | 173 | 0.0 | 4.8 | 0.00 | 0.00 | 0.00 | 80 | 1009.6 |
| 20260903112448 | 27 | 175 | 0.0 | 6.4 | 0.00 | 0.00 | 0.00 | 80 | 1009.5 |
| 20260903111448 | 27 | 144 | 3.2 | 6.4 | 0.00 | 0.00 | 0.00 | 80 | 1009.5 |
| 20260903110448 | 27 | 168 | 0.0 | 8.0 | 0.00 | 0.00 | 0.00 | 81 | 1009.5 |
| 20260903105448 | 28 | 154 | 0.0 | 4.8 | 0.00 | 0.00 | 0.00 | 81 | 1009.3 |
| 20260903104448 | 28 | 154 | 0.0 | 8.0 | 0.00 | 0.00 | 0.00 | 81 | 1009.2 |
| 20260903103448 | 28 | 154 | 0.0 | 3.2 | 0.00 | 0.00 | 0.00 | 81 | 1009.2 |
| 20260903102448 | 28 | 154 | 0.0 | 3.2 | 0.00 | 0.00 | 0.00 | 81 | 1009.1 |
| 20260903101448 | 28 | 154 | 0.0 | 6.4 | 0.00 | 0.00 | 0.00 | 81 | 1009.1 |
| 20260903100448 | 28 | 156 | 0.0 | 3.2 | 0.00 | 0.00 | 0.00 | 81 | 1009.1 |
| 20260903095448 | 28 | 156 | 0.0 | 4.8 | 0.00 | 0.00 | 0.00 | 81 | 1009.1 |
| 20260903094448 | 28 | 156 | 0.0 | 4.8 | 0.00 | 0.00 | 0.00 | 81 | 1009.2 |
| 20260903093448 | 28 | 157 | 0.0 | 6.4 | 0.00 | 0.00 | 0.00 | 81 | 1009.2 |
| 20260903092448 | 28 | 154 | 0.0 | 4.8 | 0.00 | 0.00 | 0.00 | 81 | 1009.2 |
| 20260903091448 | 28 | 154 | 0.0 | 3.2 | 0.00 | 0.00 | 0.00 | 81 | 1009.1 |
| 20260903090448 | 28 | 154 | 0.0 | 4.8 | 0.00 | 0.00 | 0.00 | 80 | 1009.1 |
| 20260903085448 | 28 | 154 | 1.6 | 4.8 | 0.00 | 0.00 | 0.00 | 80 | 1009.2 |
| 20260903084448 | 28 | 154 | 0.0 | 1.6 | 0.00 | 0.00 | 0.00 | 80 | 1009.1 |
| 20260903083448 | 28 | 154 | 0.0 | 6.4 | 0.00 | 0.00 | 0.00 | 80 | 1009.1 |
| 20260903082448 | 28 | 154 | 0.0 | 6.4 | 0.00 | 0.00 | 0.00 | 80 | 1009.1 |
| 20260903081448 | 28 | 154 | 0.0 | 6.4 | 0.00 | 0.00 | 0.00 | 80 | 1008.9 |
| 20260903080449 | 28 | 153 | 0.0 | 4.8 | 0.00 | 0.00 | 0.00 | 80 | 1008.9 |
| 20260903075448 | 28 | 152 | 0.0 | 8.0 | 0.00 | 0.00 | 0.00 | 79 | 1009.1 |
| 20260903074451 | 28 | 150 | 3.2 | 4.8 | 0.00 | 0.00 | 0.00 | 79 | 1009.1 |
| 20260903073451 | 28 | 149 | 0.0 | 8.0 | 0.00 | 0.00 | 0.00 | 79 | 1009.1 |
| 20260903072448 | 28 | 149 | 0.0 | 6.4 | 0.00 | 0.00 | 0.00 | 79 | 1009.1 |
| 20260903071448 | 28 | 149 | 0.0 | 6.4 | 0.00 | 0.00 | 0.00 | 79 | 1009.2 |
| 20260903070448 | 28 | 149 | 0.0 | 8.0 | 0.00 | 0.00 | 0.00 | 79 | 1009.2 |
| 20260903065448 | 28 | 148 | 1.6 | 8.0 | 0.00 | 0.00 | 0.00 | 79 | 1009.6 |
| 20260903064447 | 28 | 146 | 1.6 | 6.4 | 0.00 | 0.00 | 0.00 | 79 | 1009.7 |
| 20260903063448 | 28 | 146 | 0.0 | 6.4 | 0.00 | 0.00 | 0.00 | 79 | 1009.7 |
| 20260903062448 | 28 | 146 | 0.0 | 3.2 | 0.00 | 0.00 | 0.00 | 78 | 1009.7 |
| 20260903061448 | 28 | 146 | 0.0 | 1.6 | 0.00 | 0.00 | 0.00 | 79 | 1009.8 |
| 20260903060448 | 28 | 146 | 0.0 | 3.2 | 0.00 | 0.00 | 0.00 | 78 | 1009.8 |
| 20260903055451 | 28 | 146 | 0.0 | 3.2 | 0.00 | 0.00 | 0.00 | 78 | 1010.1 |
| 20260903054448 | 28 | 146 | 0.0 | 6.4 | 0.00 | 0.00 | 0.00 | 77 | 1010.2 |
| 20260903053448 | 29 | 146 | 0.0 | 3.2 | 0.00 | 0.00 | 0.00 | 77 | 1010.2 |
| 20260903052448 | 29 | 146 | 0.0 | 1.6 | 0.00 | 0.00 | 0.00 | 77 | 1010.7 |
| 20260903051451 | 29 | 146 | 0.0 | 0.0 | 0.00 | 0.00 | 0.00 | 77 | 1010.7 |
| 20260903050448 | 29 | 146 | 0.0 | 0.0 | 0.00 | 0.00 | 0.00 | 76 | 1010.7 |
| 20260903045448 | 29 | 146 | 0.0 | 3.2 | 0.00 | 0.00 | 0.00 | 77 | 1010.7 |
| 20260903044448 | 29 | 146 | 0.0 | 1.6 | 0.00 | 0.00 | 0.00 | 77 | 1010.6 |
| 20260903043448 | 29 | 146 | 0.0 | 1.6 | 0.00 | 0.00 | 0.00 | 76 | 1010.6 |
| 20260903042448 | 29 | 146 | 0.0 | 4.8 | 0.00 | 0.00 | 0.00 | 76 | 1010.5 |
| 20260903041447 | 29 | 146 | 0.0 | 0.0 | 0.00 | 0.00 | 0.00 | 75 | 1010.2 |
| 20260903040447 | 29 | 146 | 0.0 | 3.2 | 0.00 | 0.00 | 0.00 | 75 | 1010.2 |
| 20260903035448 | 29 | 146 | 0.0 | 6.4 | 0.00 | 0.00 | 0.00 | 75 | 1010.2 |
| 20260903034447 | 29 | 155 | 0.0 | 9.7 | 0.00 | 0.00 | 0.00 | 74 | 1010.1 |
| 20260903033448 | 29 | 156 | 3.2 | 6.4 | 0.00 | 0.00 | 0.00 | 74 | 1010.1 |
| 20260903032447 | 30 | 156 | 0.0 | 3.2 | 0.00 | 0.00 | 0.00 | 73 | 1009.8 |
| 20260903031451 | 30 | 156 | 0.0 | 1.6 | 0.00 | 0.00 | 0.00 | 72 | 1009.7 |
| 20260903030447 | 30 | 156 | 1.6 | 11.3 | 0.00 | 0.00 | 0.00 | 72 | 1009.7 |
| 20260903025448 | 30 | 169 | 3.2 | 6.4 | 0.00 | 0.00 | 0.00 | 70 | 1009.4 |
| 20260903024447 | 30 | 170 | 0.0 | 14.5 | 0.00 | 0.00 | 0.00 | 69 | 1009.2 |
| 20260903023447 | 30 | 159 | 4.8 | 9.7 | 0.00 | 0.00 | 0.00 | 68 | 1009.2 |
| 20260903022447 | 30 | 159 | 0.0 | 9.7 | 0.00 | 0.00 | 0.00 | 66 | 1009.2 |
| 20260903021448 | 30 | 169 | 1.6 | 11.3 | 0.00 | 0.00 | 0.00 | 65 | 1008.7 |
| 20260903020447 | 30 | 186 | 0.0 | 6.4 | 0.00 | 0.00 | 0.00 | 63 | 1008.7 |
| 20260903015448 | 30 | 189 | 0.0 | 16.1 | 0.00 | 0.00 | 0.00 | 62 | 1008.6 |
| 20260903014447 | 31 | 134 | 3.2 | 6.4 | 0.00 | 0.00 | 0.00 | 60 | 1008.4 |
| 20260903013451 | 31 | 150 | 3.2 | 14.5 | 0.00 | 0.00 | 0.00 | 59 | 1008.4 |
| 20260903012450 | 31 | 157 | 3.2 | 9.7 | 0.00 | 0.00 | 0.00 | 58 | 1008.3 |
| 20260903011447 | 31 | 144 | 1.6 | 17.7 | 0.00 | 0.00 | 0.00 | 57 | 1008.1 |
| 20260903010450 | 32 | 154 | 0.0 | 17.7 | 0.00 | 0.00 | 0.00 | 55 | 1008.1 |
| 20260903005448 | 32 | 170 | 3.2 | 12.9 | 0.00 | 0.00 | 0.00 | 53 | 1008.0 |
| 20260903004450 | 32 | 178 | 11.3 | 11.3 | 0.00 | 0.00 | 0.00 | 52 | 1007.7 |
| 20260903003448 | 32 | 190 | 6.4 | 12.9 | 0.00 | 0.00 | 0.00 | 50 | 1007.7 |
| 20260903002448 | 32 | 140 | 8.0 | 14.5 | 0.00 | 0.00 | 0.00 | 49 | 1007.4 |
| 20260903001448 | 33 | 209 | 4.8 | 8.0 | 0.00 | 0.00 | 0.00 | 49 | 1007.2 |
| 20260903000448 | 33 | 140 | 4.8 | 19.3 | 0.00 | 0.00 | 0.00 | 49 | 1007.2 |
| 20260902235448 | 33 | 173 | 6.4 | 14.5 | 0.00 | 0.00 | 0.00 | 48 | 1007.2 |
| 20260902234448 | 33 | 136 | 11.3 | 16.1 | 0.00 | 0.00 | 0.00 | 47 | 1007.3 |
| 20260902233447 | 34 | 82 | 4.8 | 17.7 | 0.00 | 0.00 | 0.00 | 47 | 1007.3 |
| 20260902232451 | 34 | 160 | 4.8 | 9.7 | 0.00 | 0.00 | 0.00 | 47 | 1007.2 |
| 20260902231447 | 35 | 160 | 0.0 | 19.3 | 0.00 | 0.00 | 0.00 | 48 | 1007.2 |
| 20260902230447 | 35 | 218 | 8.0 | 14.5 | 0.00 | 0.00 | 0.00 | 47 | 1007.2 |
| 20260902225447 | 35 | 126 | 0.0 | 11.3 | 0.00 | 0.00 | 0.00 | 46 | 1007.2 |
| 20260902224450 | 35 | 115 | 4.8 | 16.1 | 0.00 | 0.00 | 0.00 | 46 | 1007.2 |
| 20260902223451 | 36 | 152 | 1.6 | 11.3 | 0.00 | 0.00 | 0.00 | 45 | 1007.2 |
| 20260902222450 | 36 | 201 | 4.8 | 9.7 | 0.00 | 0.00 | 0.00 | 44 | 1007.2 |
| 20260902221448 | 36 | 148 | 3.2 | 9.7 | 0.00 | 0.00 | 0.00 | 42 | 1007.1 |
| 20260902220448 | 36 | 205 | 4.8 | 8.0 | 0.00 | 0.00 | 0.00 | 41 | 1007.2 |
| 20260902215450 | 37 | 178 | 1.6 | 9.7 | 0.00 | 0.00 | 0.00 | 41 | 1007.2 |
| 20260902214447 | 37 | 169 | 1.6 | 8.0 | 0.00 | 0.00 | 0.00 | 41 | 1007.3 |
| 20260902213447 | 37 | 165 | 3.2 | 8.0 | 0.00 | 0.00 | 0.00 | 42 | 1007.3 |
| 20260902212448 | 36 | 137 | 1.6 | 8.0 | 0.00 | 0.00 | 0.00 | 41 | 1007.7 |
| 20260902211447 | 36 | 165 | 3.2 | 12.9 | 0.00 | 0.00 | 0.00 | 40 | 1007.7 |
| 20260902210447 | 36 | 196 | 0.0 | 9.7 | 0.00 | 0.00 | 0.00 | 40 | 1007.7 |
| 20260902205447 | 37 | 141 | 4.8 | 20.9 | 0.00 | 0.00 | 0.00 | 39 | 1007.7 |
| 20260902204448 | 36 | 175 | 4.8 | 16.1 | 0.00 | 0.00 | 0.00 | 41 | 1007.9 |
| 20260902203448 | 36 | 157 | 4.8 | 14.5 | 0.00 | 0.00 | 0.00 | 40 | 1007.9 |
| 20260902202450 | 36 | 188 | 8.0 | 9.7 | 0.00 | 0.00 | 0.00 | 41 | 1008.0 |
| 20260902201447 | 36 | 200 | 0.0 | 14.5 | 0.00 | 0.00 | 0.00 | 41 | 1008.3 |
| 20260902200451 | 36 | 172 | 3.2 | 11.3 | 0.00 | 0.00 | 0.00 | 40 | 1008.3 |
| 20260902195447 | 36 | 246 | 6.4 | 14.5 | 0.00 | 0.00 | 0.00 | 42 | 1008.7 |
| 20260902194447 | 36 | 175 | 3.2 | 14.5 | 0.00 | 0.00 | 0.00 | 42 | 1008.9 |
| 20260902193447 | 36 | 144 | 4.8 | 9.7 | 0.00 | 0.00 | 0.00 | 42 | 1008.9 |
| 20260902192447 | 36 | 202 | 1.6 | 9.7 | 0.00 | 0.00 | 0.00 | 42 | 1009.1 |
| 20260902191447 | 36 | 171 | 3.2 | 9.7 | 0.00 | 0.00 | 0.00 | 43 | 1009.2 |